星链-31767 (STARLINK-31767 )

导读 | 豆包AI

STARLINK-31767是美国SpaceX公司星链星座项目中的第二代卫星,于2024年4月28日发射入轨,属于星链全球卫星互联网组网的组成部分。它运行在近地轨道,配备增强型相控阵天线与激光星间链路,单星容量超100Gbps,可提供低延迟宽带接入服务,服务覆盖偏远区域,助力全球互联网覆盖。星链计划部署数万颗卫星,该卫星是星座规模扩展的重要节点,但也引发了太空轨道资源与天文观测的相关讨论。

基本信息
目录编号:
59605
目录名称:
STARLINK-31767
国际标识:
2024-080E
轨道中心:
EARTH
卫星名称:
星链-31767
卫星全名:
星链-31767 (STARLINK-31767 )
卫星状态:
在轨 (已飞行686 天)
发射日期:
2024-04-28 UTC
国别 :
美国 (US)
星等 :
--
轨道信息
数据来源 国际轨道数据
星历时间: 2026-03-15T08:09:04+0800
19小时前
查看轨道信息
半长轴: 6861.145km
偏心率: 0.000125
轨道倾角: 43.005°
近地点辐角 285.318°
升交点赤经 8.068°
平近点角 74.753°
近地点: 482.15km
远地点: 483.866km
周期: 94.266分钟
每日圈数: 15.275938
详细信息
固有亮度:
5
最大亮度:
1.5
卫星平台:
Starlink v2.0 mini
覆盖范围:
全球
运营商:
太空探索技术公司
运营商所在国:
美国
制造商(研发单位):
太空探索技术公司
制造商所在国:
美国
使用方式:
暂无
卫星简介
星链(Starlink)计划是由太空探索技术公司(SpaceX)提出的一个巨型低轨卫星互联网星座项目,计划在2019年至2024年间在太空搭建由约1.2万颗卫星组成的“星链”网络,其中1584颗将部署在地球上空550千米处的近地轨道,并从2020年开始工作。该卫星仍在工作。
2D轨道图
3D轨道图
轨道高度分析图
轨道倾角分析图
轨道综合分析图
查看轨道综合分析图